Weather History for KRBO - October, 2012

Change the Weather History Date:

Thursday, October 11, 2012

  Actual Average (KCRP) Record (KCRP)
Temperature  
Mean Temperature 82 °F 76 °F  
Max Temperature 89 °F 86 °F 95 °F (1962)
Min Temperature 76 °F 66 °F 45 °F (1990)
Degree Days  
Heating Degree Days 0 0  
Month to date heating degree days 0  
Since 1 July heating degree days 0  
Cooling Degree Days 18 11  
Month to date cooling degree days 132  
Year to date cooling degree days 3175  
Growing Degree Days 32 (Base 50)    
Moisture  
Dew Point 75 °F    
Average Humidity 81    
Maximum Humidity 92    
Minimum Humidity 59    
Precipitation  
Precipitation 0.31 in 0.12 in 4.52 in (1973)
Month to date precipitation 1.32  
Year to date precipitation 25.64  
Snow  
Snow 0.00 in - - ()
Month to date snowfall  
Since 1 July snowfall  
Since 1 September snowfall  
Snow Depth -    
Sea Level Pressure  
Sea Level Pressure 30.06 in    
Wind  
Wind Speed 10 mph (SE)    
Max Wind Speed 26 mph    
Max Gust Speed 31 mph    
Visibility 10 miles    
Events Rain    
T = Trace of Precipitation, MM = Missing Value Source: NWS Daily Summary

Daily Weather History Graph

Daily Weather History Graph

Search for Another Location

Airport or City:

Trip Planner

Search our weather history database for the weather conditions in past years. The results will help you decide how hot, cold, wet, or windy it might be!

Date:

Astronomy

Oct. 11, 2012 Rise Set
Actual Time 7:29 AM CDT 7:05 PM CDT
Civil Twilight 7:05 AM CDT 7:28 PM CDT
Nautical Twilight 6:38 AM CDT 7:55 PM CDT
Astronomical Twilight 6:11 AM CDT 8:22 PM CDT
Moon 3:29 AM CDT (10/11) 4:25 PM CDT (10/11)
Length of Visible Light 12h 23m
Length of Day
11h 36m
Waning Crescent, 18% of the Moon is Illuminated
Oct 11
Waning Crescent
Oct 15
New
Oct 21
First Quarter
Oct 29
Full
Nov 6
Last Quarter

Hourly Weather History & Observations

Time (CDT) Temp. Heat Index Dew Point Humidity Pressure Visibility Wind Dir Wind Speed Gust Speed Precip Events Conditions
12:15 AM 80.4 °F 85.8 °F 75.2 °F 84% 30.04 in 10.0 mi ESE 9.2 mph - N/A   Clear
12:35 AM 79.7 °F - 75.2 °F 86% 30.04 in 10.0 mi SE 5.8 mph - N/A   Clear
12:55 AM 79.7 °F - 75.4 °F 87% 30.04 in 10.0 mi SE 6.9 mph - N/A   Clear
1:15 AM 79.5 °F - 75.2 °F 87% 30.04 in 10.0 mi SE 8.1 mph - N/A   Clear
1:35 AM 79.3 °F - 75.2 °F 87% 30.04 in 10.0 mi SE 6.9 mph - N/A   Clear
1:55 AM 79.0 °F - 74.5 °F 86% 30.04 in 10.0 mi SE 6.9 mph - N/A   Clear
2:15 AM 78.6 °F - 74.3 °F 87% 30.04 in 10.0 mi ESE 4.6 mph - N/A   Clear
2:35 AM 77.5 °F - 73.9 °F 89% 30.04 in 10.0 mi East 3.5 mph - N/A   Clear
2:55 AM 77.2 °F - 74.1 °F 90% 30.04 in 10.0 mi East 3.5 mph - N/A   Clear
3:15 AM 76.8 °F - 73.9 °F 91% 30.03 in 10.0 mi SE 5.8 mph - N/A   Clear
3:55 AM 77.4 °F - 74.5 °F 91% 30.02 in 10.0 mi ESE 5.8 mph - N/A   Scattered Clouds
4:15 AM 77.4 °F - 74.7 °F 91% 30.02 in 10.0 mi ESE 4.6 mph - N/A   Scattered Clouds
4:35 AM 77.4 °F - 74.7 °F 91% 30.02 in 10.0 mi East 4.6 mph - N/A   Mostly Cloudy
4:55 AM 77.4 °F - 74.5 °F 91% 30.02 in 10.0 mi East 4.6 mph - N/A   Mostly Cloudy
5:15 AM 77.2 °F - 74.3 °F 91% 30.03 in 10.0 mi East 4.6 mph - N/A   Scattered Clouds
5:35 AM 77.2 °F - 74.3 °F 91% 30.03 in 10.0 mi East 5.8 mph - N/A   Scattered Clouds
5:55 AM 77.2 °F - 74.1 °F 90% 30.03 in 3.0 mi SSE 11.5 mph 18.4 mph 0.15 in Rain Heavy Rain
6:15 AM 76.6 °F - 72.7 °F 87% 30.04 in 10.0 mi SE 5.8 mph - 0.16 in   Mostly Cloudy
6:35 AM 77.0 °F - 73.9 °F 90% 30.05 in 10.0 mi SE 4.6 mph - 0.16 in   Scattered Clouds
7:15 AM 77.9 °F - 75.6 °F 92% 30.05 in 10.0 mi SE 4.6 mph - N/A   Scattered Clouds
7:55 AM 77.9 °F - 75.6 °F 92% 30.06 in 7.0 mi ESE 4.6 mph - N/A   Mostly Cloudy
8:15 AM 77.9 °F - 75.6 °F 92% 30.07 in 7.0 mi ESE 4.6 mph - N/A   Mostly Cloudy
8:35 AM 78.6 °F - 76.3 °F 92% 30.07 in 10.0 mi SE 10.4 mph - N/A   Scattered Clouds
8:55 AM 80.2 °F 86.0 °F 76.3 °F 88% 30.08 in 10.0 mi SE 10.4 mph - N/A   Clear
9:15 AM 81.1 °F 87.8 °F 76.3 °F 85% 30.09 in 10.0 mi SE 12.7 mph - N/A   Clear
9:35 AM 82.4 °F 91.2 °F 77.5 °F 85% 30.10 in 10.0 mi SE 10.4 mph - N/A   Scattered Clouds
9:55 AM 82.2 °F 90.4 °F 77.0 °F 84% 30.11 in 10.0 mi SE 12.7 mph - N/A   Mostly Cloudy
10:15 AM 83.1 °F 91.9 °F 76.6 °F 81% 30.11 in 10.0 mi SE 12.7 mph - N/A   Mostly Cloudy
10:35 AM 84.2 °F 93.4 °F 76.5 °F 77% 30.11 in 10.0 mi SE 15.0 mph - N/A   Mostly Cloudy
10:55 AM 85.3 °F 95.8 °F 77.0 °F 76% 30.11 in 10.0 mi SE 16.1 mph - N/A   Scattered Clouds
11:15 AM 84.6 °F 93.5 °F 75.9 °F 75% 30.11 in 10.0 mi SE 21.9 mph - N/A   Scattered Clouds
11:35 AM 83.3 °F 89.9 °F 73.8 °F 73% 30.11 in 10.0 mi SE 17.3 mph 21.9 mph N/A   Scattered Clouds
11:55 AM 84.0 °F 93.7 °F 76.8 °F 79% 30.10 in 10.0 mi SE 17.3 mph 25.3 mph N/A   Scattered Clouds
12:15 PM 83.3 °F 92.4 °F 76.8 °F 81% 30.10 in 10.0 mi SE 17.3 mph 23.0 mph N/A   Light Drizzle
12:55 PM 87.8 °F 99.1 °F 76.5 °F 69% 30.08 in 10.0 mi SSE 23.0 mph 27.6 mph N/A   Mostly Cloudy
1:15 PM 86.9 °F 96.4 °F 75.2 °F 68% 30.07 in 10.0 mi SE 17.3 mph - N/A   Mostly Cloudy
1:55 PM 88.3 °F 97.4 °F 74.1 °F 63% 30.06 in 10.0 mi SE 20.7 mph 28.8 mph N/A   Scattered Clouds
2:15 PM 89.6 °F 99.3 °F 74.3 °F 61% 30.05 in 10.0 mi SE 21.9 mph 26.5 mph N/A   Scattered Clouds
3:15 PM 89.6 °F 98.2 °F 73.4 °F 59% 30.05 in 10.0 mi SE 24.2 mph 28.8 mph N/A   Scattered Clouds
3:55 PM 88.5 °F 95.8 °F 72.7 °F 59% 30.04 in 10.0 mi SE 26.5 mph 31.1 mph N/A   Scattered Clouds
4:35 PM 87.6 °F 94.8 °F 72.7 °F 61% 30.03 in 10.0 mi SE 21.9 mph 27.6 mph N/A   Clear
4:55 PM 87.4 °F 94.0 °F 72.1 °F 60% 30.04 in 10.0 mi SE 20.7 mph 28.8 mph N/A   Clear
5:15 PM 87.4 °F 94.4 °F 72.5 °F 61% 30.03 in 10.0 mi SE 21.9 mph 26.5 mph N/A   Clear
6:15 PM 84.6 °F 91.0 °F 73.0 °F 68% 30.03 in 10.0 mi SE 20.7 mph 24.2 mph N/A   Clear
6:35 PM 83.3 °F 89.3 °F 72.9 °F 71% 30.04 in 10.0 mi SE 18.4 mph 23.0 mph N/A   Clear
6:55 PM 82.4 °F 88.2 °F 73.4 °F 74% 30.04 in 10.0 mi SE 16.1 mph - N/A   Clear
7:15 PM 81.5 °F 86.7 °F 73.4 °F 76% 30.05 in 10.0 mi SE 13.8 mph - N/A   Clear
7:35 PM 80.8 °F 85.8 °F 73.6 °F 79% 30.05 in 10.0 mi ESE 12.7 mph - N/A   Clear
7:55 PM 80.4 °F 85.1 °F 73.8 °F 80% 30.05 in 10.0 mi ESE 10.4 mph - N/A   Clear
8:15 PM 79.9 °F - 73.8 °F 81% 30.06 in 10.0 mi ESE 9.2 mph - N/A   Clear
8:35 PM 79.7 °F - 73.6 °F 81% 30.07 in 10.0 mi ESE 9.2 mph - N/A   Clear
8:55 PM 79.0 °F - 73.4 °F 83% 30.07 in 10.0 mi ESE 8.1 mph - N/A   Clear
9:15 PM 78.8 °F - 73.6 °F 84% 30.08 in 10.0 mi ESE 9.2 mph - N/A   Clear
9:35 PM 78.3 °F - 73.4 °F 85% 30.09 in 10.0 mi ESE 9.2 mph - N/A   Clear
9:55 PM 78.1 °F - 73.0 °F 84% 30.09 in 10.0 mi ESE 9.2 mph - N/A   Clear
10:15 PM 77.9 °F - 73.2 °F 85% 30.09 in 10.0 mi ESE 9.2 mph - N/A   Clear
10:55 PM 77.2 °F - 73.0 °F 87% 30.10 in 10.0 mi ESE 8.1 mph - N/A   Clear
11:15 PM 77.0 °F - 72.9 °F 87% 30.09 in 10.0 mi ESE 8.1 mph - N/A   Clear